THOR ABLESTAR DEB, 706

Orbit data source: Space-Track

THOR ABLESTAR DEB, 706 is space debris in LEO originally from a launch on Thu, 05 Dec 1963 UTC launched from the Air Force Western Test Range (AFWTR). Debris objects in space refer to the collection of defunct objects orbiting the Earth. Examples of debris include non-operational satellites, rocket bodies, and fragments generated from explosions, collisions, or faulty payload assembly.

Loading next visibility...
Identifier
706, 1963-049D
Orbit
LEO
Country
Flag of USUS
Related business
Manufacturer
Unknown
Mission
Spacecraft
Bus & Motor
Unknown
Mass
Unknown
Launch date (UTC)
1963-12-05 (62 years ago)
Launch vehicle
Unknown
Launch site
Air Force Western Test Range (AFWTR)
Object type
Payload
Rocket body
Debris
Shape & HBR
Unknown
Radar Cross Section
Small (<0.1 m²)

Expand to show TLE details & history
Last TLE update: 1 day ago

TLE from 1 day ago
0 THOR ABLESTAR DEB
1 00706U 63049D   25242.01912573  .00000279  00000-0  38148-3 0  9993
2 00706  89.9089  75.5997 0026586 187.2236 325.9058 13.56441508 43833
Epoch: 2025-08-30T00:27Z
TLE epoch observation values (Epoch: 2025-08-30T00:27:32.463Z)
Latitude
27.07736°
Longitude
-89.79133°
Altitude
1,035.685 km
Speed
7.344 km/s
True Right ascension
17h 02m 12s
True Declination
26° 56' 36"
Sunlit
Object was in daylight at epoch
Visualization orbit readout
Latitude
Unknown
Longitude
Unknown
Altitude
Unknown
Speed
Unknown
Apparent Right ascension
Unknown
Apparent Declination
Unknown
Sunlit
N/A
Visualization observer readout
Local Sidereal Time
18:01:32
Azimuth
Unknown
Elevation
Unknown
Doppler factor
Unknown
Orbital elements
Apogee altitude
1,065.43 km
Perigee altitude
1,025.956 km
Semi-major axis
7,423.83 km
Eccentricity
0.00266
Inclination
89.9089°
RAAN
75.5997°
Arg. of periapsis
187.2236°
True anomaly
325.73455°
Mean anomaly
325.9058°
Eccentric anomaly
325.82022°
Mean motion
3.39313 °/min
Orbital period
106.1 mins
BSTAR
0.00038148
Loading maneuver chart data...
Computing Atmospheric mass density...
Loading historical data...
Loading historical data...
Loading historical data...
Loading historical data...
Loading historical data...
Loading historical data...
Loading historical data...

Documentation

Showing up to 5 results
|